Flag for Germany Weather past 2 weeks in Erding, Bavaria, Germany

Now
90 °F

Passing clouds.


Feels Like: 90 °F
Forecast: 64 / 89 °F
Wind: 6 mph from East

Location: Munich / Franz Josef Strauss Airport

Current Time: Jul 4, 2015 at 6:05:46 PM

Latest Report: Jul 4, 2015 at 5:20 PM


Visibility: N/A

Pressure: 30.18 "Hg

Humidity: 41%

Dew point: 63 °F

Location of ErdingLocation

Historic Weather in Erding — Graph

°F

Erding temperature yesterday

Maximum temperature yesterday: 88 °F (at 3:50 PM)
Minimum temperature yesterday: 55 °F (at 5:20 AM)
Average temperature yesterday: 74 °F

Past Weeks' High & Low Weather Summary

 TemperatureHumidityPressure
High90 °F (Jul 4, 2:50 PM)100% (Jun 23, 12:50 AM)30.30 "Hg (Jun 23, 12:50 AM)
Low43 °F (Jun 25, 5:20 AM)37% (Jun 30, 2:20 PM)29.74 "Hg (Jun 22, 10:50 PM)
Average64 °F72%30.14 "Hg
* Reported Jun 19 4:20 PM — Jul 4 4:50 PM, Erding, Weather by CustomWeather, © 2015

Note: Actual official high and low records may vary slightly from our data, if they occured in-between our weather recording intervals... More about our weather records

Advertising

Erding weather history for previous 24 hours

 ConditionsComfort  
Time TempWeatherWind HumidityBarometerVisibility
4:50 PM
Sat, Jul 4
90 °FPassing clouds.5 mph43%30.18 "HgN/A
4:20 PM90 °FPassing clouds.5 mph43%30.18 "HgN/A
3:50 PM90 °FPassing clouds.7 mph43%30.18 "HgN/A
3:20 PM90 °FSunny.6 mph43%30.18 "Hg10 mi
2:50 PM90 °FPassing clouds.6 mph43%30.21 "HgN/A
2:20 PM88 °FPassing clouds.6 mph49%30.21 "HgN/A
1:50 PM88 °FPassing clouds.5 mph49%30.21 "HgN/A
1:20 PM86 °FPassing clouds.6 mph52%30.21 "HgN/A
12:50 PM86 °FSunny.7 mph55%30.21 "Hg10 mi
12:20 PM84 °FPassing clouds.6 mph55%30.24 "HgN/A
11:50 AM84 °FPassing clouds.6 mph58%30.24 "HgN/A
11:20 AM82 °FPassing clouds.6 mph62%30.24 "HgN/A
10:50 AM81 °FPassing clouds.5 mph62%30.24 "HgN/A
10:20 AM79 °FPassing clouds.5 mph65%30.24 "HgN/A
9:50 AM79 °FPassing clouds.5 mph65%30.24 "HgN/A
9:20 AM77 °FSunny.2 mph65%30.24 "Hg10 mi
8:50 AM73 °FPassing clouds.3 mph69%30.24 "HgN/A
8:20 AM73 °FPassing clouds.3 mph74%30.24 "HgN/A
7:50 AM70 °FSunny.5 mph83%30.24 "Hg10 mi
7:20 AM68 °FSunny.3 mph88%30.24 "Hg10 mi
6:50 AM64 °FSunny.2 mph94%30.24 "Hg10 mi
6:20 AM63 °FSunny.2 mph94%30.24 "Hg10 mi
5:50 AM61 °FFog.2 mph94%30.24 "HgN/A
5:20 AM61 °FFog.2 mph94%30.24 "HgN/A
4:50 AM61 °FClear.1 mph94%30.24 "Hg10 mi
4:20 AM63 °FClear.1 mph94%30.24 "Hg10 mi
3:50 AM63 °FClear.No wind94%30.24 "Hg10 mi
3:20 AM63 °FClear.1 mph94%30.24 "Hg10 mi
2:50 AM64 °FPassing clouds.3 mph88%30.24 "HgN/A
2:20 AM64 °FClear.1 mph88%30.24 "Hg10 mi
1:50 AM66 °FClear.1 mph83%30.24 "Hg10 mi
1:20 AM66 °FClear.2 mph88%30.27 "Hg10 mi
12:50 AM66 °FClear.1 mph88%30.27 "Hg10 mi
12:20 AM68 °FClear.1 mph83%30.27 "Hg10 mi
11:50 PM
Fri, Jul 3
70 °FClear.1 mph78%30.27 "Hg10 mi
11:20 PM73 °FClear.2 mph69%30.27 "Hg10 mi
10:50 PM73 °FClear.2 mph69%30.27 "Hg10 mi
10:20 PM75 °FClear.2 mph65%30.27 "Hg10 mi
9:50 PM77 °FSunny.3 mph61%30.27 "Hg10 mi
9:20 PM79 °FSunny.3 mph61%30.27 "Hg10 mi
8:50 PM81 °FSunny.3 mph54%30.27 "Hg10 mi
8:20 PM82 °FSunny.3 mph51%30.27 "Hg10 mi
7:50 PM84 °FSunny.6 mph48%30.27 "Hg10 mi
7:20 PM86 °FSunny.7 mph55%30.27 "Hg10 mi
6:50 PM86 °FPassing clouds.5 mph55%30.27 "HgN/A
6:20 PM86 °FSunny.6 mph52%30.24 "Hg10 mi
Weather by CustomWeather, © 2015

See weather overviewHow to use our weather pages